Regional Weather Roundup
Issued by NWS

Home | Current Version | Previous Version | Text Only | Print | Product List | Glossary Off
Versions: 1 2 3 4 5 6 7 8 9 10 11 12 13 14 15 16 17 18 19 20 21 22 23 24 25 26 27 28 29 30 31 32 33 34 35 36 37 38 39 40 41 42 43 44 45 46 47 48 49 50

000
ASUS45 KTFX 272210
RWRMT
MONTANA REGIONAL WEATHER ROUNDUP
NATIONAL WEATHER SERVICE GREAT FALLS MT
400 PM MDT THU AUG 27 2015

NOTE: "FAIR" INDICATES FEW OR NO CLOUDS BELOW 12000 FEET WITH NO
SIGNIFICANT WEATHER AND/OR OBSTRUCTIONS TO VISIBILITY.

MTZ001>007-043-272300-
WEST OF THE DIVIDE

CITY           SKY/WX    TMP DP  RH WIND       PRES   REMARKS
KALISPELL      CLOUDY    86  41  20 S7        29.99F SMOKE
MISSOULA       CLOUDY    84  42  22 S7        30.02F HAZE
BUTTE          LGT RAIN  80  34  19 CALM      30.16F
MULLAN PASS      N/A     74  37  26 VRB3      30.24F HAZE
DEER LODGE       N/A     82  36  18 CALM      30.14F
EUREKA           N/A     90  39  17 S6        29.97F
HAMILTON         N/A     79  50  36 N5        30.04F
LIBBY            N/A     86  41  20 NW6       29.99F
PLAINS           N/A     91  42  18 W5        29.99F
$$

MTZ008-052>055-272300-
SOUTHWEST MONTANA

CITY           SKY/WX    TMP DP  RH WIND       PRES   REMARKS
BOZEMAN          N/A     84  37  18 CALM      30.10F HAZE
DILLON         LGT RAIN  78  41  26 N9        30.13F
W YELLOWSTONE    N/A     73  45  35 SW17G23   30.28F
$$

MTZ009-010-012-014-046-048-049-054-272300-
EAST SLOPES AND CENTRAL MONTANA

CITY           SKY/WX    TMP DP  RH WIND       PRES   REMARKS
CUT BANK       CLOUDY    87  34  15 W16       29.99F HAZE
GREAT FALLS    CLOUDY    87  38  17 SW18      29.99F HAZE
MALMSTROM AFB  PTSUNNY   87  37  17 SW17      29.98F HAZE
HELENA         CLOUDY    85  49  28 E6        30.04F
CONRAD           N/A     88  41  19 W9        30.02F
$$

MTZ011-013-016-021-045-047-050-051-272300-
NORTH CENTRAL MONTANA

CITY           SKY/WX    TMP DP  RH WIND       PRES   REMARKS
HAVRE            N/A     85  47  26 SW13      29.91F
LEWISTOWN        N/A     83  44  25 NW3       30.05F
N BAR RANCH      N/A     84  41  21 NW13      30.08F
CHINOOK          N/A     84  48  28 W9        29.90F
FORT BENTON      N/A     90  36  14 N3        29.94F
$$

MTZ017>020-022>027-061-062-272300-
NORTHEAST MONTANA

CITY           SKY/WX    TMP DP  RH WIND       PRES   REMARKS
GLASGOW          N/A     89  53  29 VRB7      29.89F
JORDAN           N/A     91  49  23 VRB3      29.91F
SIDNEY           N/A     86  64  48 CALM      29.89F
WOLF POINT       N/A     91  55  29 VRB5      29.88F
MALTA            N/A     89  56  32 W2        29.86F
PLENTYWOOD       N/A     90  54  29 S6        29.90S
POPLAR           N/A     88  57  35 W6        29.89S
$$

MTZ028>42-056>058-272300-
SOUTHCENTRAL AND SOUTHEAST MONTANA

CITY           SKY/WX    TMP DP  RH WIND       PRES   REMARKS
BAKER            N/A     89  59  36 NW8       29.95F
BILLINGS       CLOUDY    84  43  23 W13       30.05F
LIVINGSTON       N/A     85  40  20 SW14      30.11F
MILES CITY       N/A     92  48  22 NW8       29.92F
EKALAKA          N/A     85  48  27 W7        29.97F
FORSYTH          N/A     90  46  22 SW5       29.93F
LAUREL           N/A     85  43  22 SW13      30.04F
$$

REGIONAL REPORTS...DAKOTAS

CITY           SKY/WX    TMP DP  RH WIND       PRES   REMARKS
WILLISTON        N/A     85  62  46 S8        29.89F
MINOT            N/A     81  64  56 S7        29.90F
DICKINSON        N/A     87  56  34 E8        29.91F
CROSBY           N/A     86  52  30 S6        29.88F
BISMARCK         N/A     86  61  42 S7        29.92F
GRAND FORKS    PTSUNNY   78  63  59 SW9       29.91F
FARGO            N/A     79  65  62 VRB3      29.92F
BUFFALO SD       N/A     86  62  44 N7        29.88F
RAPID CITY       N/A     79  59  50 NE8       30.01F
$$

REGIONAL REPORTS...WYOMING/IDAHO/WASHINGTON

CITY           SKY/WX    TMP DP  RH WIND       PRES   REMARKS
GILLETTE         N/A     82  47  29 NW5       30.07F
SHERIDAN         N/A     89  45  21 NW14      30.04F
BUFFALO WY       N/A     83  43  24 N13       30.11F
CODY             N/A     75  45  33 N13       30.16S
YELLOWSTONE LA   N/A     58  47  66 CALM      30.38F
IDAHO FALLS    PTSUNNY   85  48  27 S9G16     30.17F
SALMON           N/A     84  46  26 NW5       30.02F
BOISE            N/A     92  38  15 N8        30.08F
SPOKANE        PTSUNNY   87  38  17 SW20G28   30.03F
$$

REGIONAL REPORTS...ALBERTA

CITY           SKY/WX    TMP DP  RH WIND       PRES   REMARKS
EDMONTON       SUNNY     81  52  36 W7        29.82F
CALGARY        CLOUDY    73  50  43 NE2       29.92F SMOKE
LETHBRIDGE     CLOUDY    90  36  14 W28G39    29.91F SMOKE
MEDICINE HAT   CLOUDY    84  50  30 SW10      29.87F SMOKE
WATERTON GATE    N/A     81  39  22 SW12G20     N/A
CARDSTON         N/A     84  39  20 W8          N/A
ONEFOUR          N/A     84  43  23 NW12        N/A
$$

REGIONAL REPORTS...SASKATCHEWAN

CITY           SKY/WX    TMP DP  RH WIND       PRES   REMARKS
SWIFT CURRENT  SUNNY     84  50  30 W8        29.86F
REGINA         PTSUNNY   82  64  54 SW8       29.84F
SASKATOON      MOSUNNY   77  57  50 S5        29.85F
CYPRESS HILLS    N/A     79  41  25 W8          N/A
VAL MARIE        N/A     84  55  37 SW12        N/A
ROCKGLEN         N/A     84  48  28 SW12G18     N/A
ASSINIBOIA       N/A     81  50  34 NW5         N/A
$$



USA.gov is the U.S. government's official web portal to all federal, state and local government web resources and services.